Year,Month,Day,Hour,Minute,Value (Times are PST for temperature in C)
2011,12,11,00,00,2.50
2011,12,11,00,01,2.50
2011,12,11,00,02,2.50
2011,12,11,00,03,2.50
2011,12,11,00,04,2.50
2011,12,11,00,05,2.40
2011,12,11,00,06,2.40
2011,12,11,00,07,2.40
2011,12,11,00,08,2.40
2011,12,11,00,09,2.40
2011,12,11,00,10,2.30
2011,12,11,00,11,2.30
2011,12,11,00,12,2.20
2011,12,11,00,13,2.20
2011,12,11,00,14,2.20
2011,12,11,00,15,2.10
2011,12,11,00,16,2.10
2011,12,11,00,17,2.10
2011,12,11,00,18,2.00
2011,12,11,00,19,2.00
2011,12,11,00,20,2.00
2011,12,11,00,21,2.00
2011,12,11,00,22,2.10
2011,12,11,00,23,2.10
2011,12,11,00,24,2.10
2011,12,11,00,25,2.20
2011,12,11,00,26,2.20
2011,12,11,00,27,2.20
2011,12,11,00,28,2.20
2011,12,11,00,29,2.10
2011,12,11,00,30,2.10
2011,12,11,00,31,2.10
2011,12,11,00,32,2.10
2011,12,11,00,33,2.10
2011,12,11,00,34,2.10
2011,12,11,00,35,2.00
2011,12,11,00,36,2.00
2011,12,11,00,37,2.00
2011,12,11,00,38,2.00
2011,12,11,00,39,2.00
2011,12,11,00,40,1.90
2011,12,11,00,41,1.90
2011,12,11,00,42,1.90
2011,12,11,00,43,1.90
2011,12,11,00,44,1.90
2011,12,11,00,45,1.90
2011,12,11,00,46,1.90
2011,12,11,00,47,1.90
2011,12,11,00,48,1.90
2011,12,11,00,49,1.90
2011,12,11,00,50,1.80
2011,12,11,00,51,1.80
2011,12,11,00,52,1.80
2011,12,11,00,53,1.80
2011,12,11,00,54,1.80
2011,12,11,00,55,1.80
2011,12,11,00,56,1.70
2011,12,11,00,57,1.70
2011,12,11,00,58,1.70
2011,12,11,00,59,1.70
2011,12,11,01,00,1.70
2011,12,11,01,01,1.70
2011,12,11,01,02,1.60
2011,12,11,01,03,1.50
2011,12,11,01,04,1.40
2011,12,11,01,05,1.30
2011,12,11,01,06,1.30
2011,12,11,01,07,1.20
2011,12,11,01,08,1.20
2011,12,11,01,09,1.20
2011,12,11,01,10,1.20
2011,12,11,01,11,1.20
2011,12,11,01,12,1.10
2011,12,11,01,13,1.10
2011,12,11,01,14,1.00
2011,12,11,01,15,1.00
2011,12,11,01,16,1.10
2011,12,11,01,17,1.10
2011,12,11,01,18,1.20
2011,12,11,01,19,1.20
2011,12,11,01,20,1.30
2011,12,11,01,21,1.30
2011,12,11,01,22,1.40
2011,12,11,01,23,1.40
2011,12,11,01,24,1.50
2011,12,11,01,25,1.50
2011,12,11,01,26,1.40
2011,12,11,01,27,1.40
2011,12,11,01,28,1.40
2011,12,11,01,29,1.40
2011,12,11,01,30,1.40
2011,12,11,01,31,1.40
2011,12,11,01,32,1.40
2011,12,11,01,33,1.40
2011,12,11,01,34,1.40
2011,12,11,01,35,1.50
2011,12,11,01,36,1.50
2011,12,11,01,37,1.50
2011,12,11,01,38,1.50
2011,12,11,01,39,1.50
2011,12,11,01,40,1.50
2011,12,11,01,41,1.60
2011,12,11,01,42,1.60
2011,12,11,01,43,1.60
2011,12,11,01,44,1.60
2011,12,11,01,45,1.70
2011,12,11,01,46,1.70
2011,12,11,01,47,1.70
2011,12,11,01,48,1.70
2011,12,11,01,49,1.70
2011,12,11,01,50,1.70
2011,12,11,01,51,1.80
2011,12,11,01,52,1.90
2011,12,11,01,53,1.90
2011,12,11,01,54,2.00
2011,12,11,01,55,2.10
2011,12,11,01,56,2.10
2011,12,11,01,57,2.20
2011,12,11,01,58,2.20
2011,12,11,01,59,2.20
2011,12,11,02,00,2.20
2011,12,11,02,01,2.20
2011,12,11,02,02,2.20
2011,12,11,02,03,2.20
2011,12,11,02,04,2.10
2011,12,11,02,05,2.10
2011,12,11,02,06,2.10
2011,12,11,02,07,2.00
2011,12,11,02,08,1.90
2011,12,11,02,09,1.80
2011,12,11,02,10,1.70
2011,12,11,02,11,1.60
2011,12,11,02,12,1.50
2011,12,11,02,13,1.40
2011,12,11,02,14,1.40
2011,12,11,02,15,1.40
2011,12,11,02,16,1.40
2011,12,11,02,17,1.30
2011,12,11,02,18,1.30
2011,12,11,02,19,1.30
2011,12,11,02,20,1.20
2011,12,11,02,21,1.20
2011,12,11,02,22,1.20
2011,12,11,02,23,1.20
2011,12,11,02,24,1.20
2011,12,11,02,25,1.20
2011,12,11,02,26,1.30
2011,12,11,02,27,1.30
2011,12,11,02,28,1.30
2011,12,11,02,29,1.40
2011,12,11,02,30,1.40
2011,12,11,02,31,1.40
2011,12,11,02,32,1.40
2011,12,11,02,33,1.40
2011,12,11,02,34,1.30
2011,12,11,02,35,1.30
2011,12,11,02,36,1.30
2011,12,11,02,37,1.30
2011,12,11,02,38,1.30
2011,12,11,02,39,1.30
2011,12,11,02,40,1.20
2011,12,11,02,41,1.20
2011,12,11,02,42,1.20
2011,12,11,02,43,1.10
2011,12,11,02,44,1.10
2011,12,11,02,45,1.10
2011,12,11,02,46,1.10
2011,12,11,02,47,1.10
2011,12,11,02,48,1.10
2011,12,11,02,49,1.10
2011,12,11,02,50,1.10
2011,12,11,02,51,1.10
2011,12,11,02,52,1.10
2011,12,11,02,53,1.10
2011,12,11,02,54,1.10
2011,12,11,02,55,1.10
2011,12,11,02,56,1.10
2011,12,11,02,57,1.10
2011,12,11,02,58,1.10
2011,12,11,02,59,1.10
2011,12,11,03,00,1.10
2011,12,11,03,01,1.10
2011,12,11,03,02,1.10
2011,12,11,03,06,1.20
2011,12,11,03,07,1.20
2011,12,11,03,08,1.20
2011,12,11,03,09,1.20
2011,12,11,03,10,1.20
2011,12,11,03,11,1.20
2011,12,11,03,12,1.20
2011,12,11,03,13,1.30
2011,12,11,03,14,1.30
2011,12,11,03,15,1.30
2011,12,11,03,16,1.30
2011,12,11,03,17,1.40
2011,12,11,03,18,1.40
2011,12,11,03,19,1.40
2011,12,11,03,20,1.40
2011,12,11,03,21,1.30
2011,12,11,03,22,1.20
2011,12,11,03,23,1.10
2011,12,11,03,24,1.00
2011,12,11,03,25,1.00
2011,12,11,03,26,0.90
2011,12,11,03,27,0.90
2011,12,11,03,28,0.80
2011,12,11,03,29,0.80
2011,12,11,03,30,0.80
2011,12,11,03,31,0.80
2011,12,11,03,32,0.80
2011,12,11,03,33,0.80
2011,12,11,03,34,0.80
2011,12,11,03,35,0.70
2011,12,11,03,36,0.70
2011,12,11,03,37,0.70
2011,12,11,03,38,0.70
2011,12,11,03,39,0.70
2011,12,11,03,40,0.60
2011,12,11,03,41,0.60
2011,12,11,03,42,0.60
2011,12,11,03,43,0.60
2011,12,11,03,44,0.60
2011,12,11,03,45,0.60
2011,12,11,03,46,0.50
2011,12,11,03,47,0.50
2011,12,11,03,48,0.40
2011,12,11,03,49,0.40
2011,12,11,03,50,0.40
2011,12,11,03,51,0.40
2011,12,11,03,52,0.40
2011,12,11,03,53,0.40
2011,12,11,03,54,0.50
2011,12,11,03,55,0.60
2011,12,11,03,56,0.60
2011,12,11,03,57,0.60
2011,12,11,03,58,0.70
2011,12,11,03,59,0.70
2011,12,11,04,00,0.70
2011,12,11,04,01,0.70
2011,12,11,04,02,0.70
2011,12,11,04,03,0.80
2011,12,11,04,04,0.80
2011,12,11,04,05,0.80
2011,12,11,04,06,0.80
2011,12,11,04,07,0.80
2011,12,11,04,08,0.80
2011,12,11,04,09,0.80
2011,12,11,04,10,0.80
2011,12,11,04,11,0.80
2011,12,11,04,12,0.80
2011,12,11,04,13,0.80
2011,12,11,04,14,0.80
2011,12,11,04,15,0.80
2011,12,11,04,16,0.80
2011,12,11,04,17,0.80
2011,12,11,04,18,0.80
2011,12,11,04,19,0.80
2011,12,11,04,20,0.80
2011,12,11,04,21,0.80
2011,12,11,04,22,0.80
2011,12,11,04,23,0.80
2011,12,11,04,24,0.80
2011,12,11,04,25,0.80
2011,12,11,04,26,0.80
2011,12,11,04,27,0.80
2011,12,11,04,28,0.80
2011,12,11,04,29,0.80
2011,12,11,04,30,0.70
2011,12,11,04,31,0.70
2011,12,11,04,32,0.70
2011,12,11,04,33,0.70
2011,12,11,04,34,0.70
2011,12,11,04,35,0.70
2011,12,11,04,36,0.70
2011,12,11,04,37,0.70
2011,12,11,04,38,0.70
2011,12,11,04,39,0.70
2011,12,11,04,40,0.70
2011,12,11,04,41,0.70
2011,12,11,04,42,0.70
2011,12,11,04,43,0.70
2011,12,11,04,44,0.70
2011,12,11,04,45,0.70
2011,12,11,04,46,0.70
2011,12,11,04,47,0.70
2011,12,11,04,48,0.80
2011,12,11,04,49,0.80
2011,12,11,04,50,0.80
2011,12,11,04,51,0.80
2011,12,11,04,52,0.90
2011,12,11,04,53,0.90
2011,12,11,04,54,0.90
2011,12,11,04,55,0.90
2011,12,11,04,56,0.90
2011,12,11,04,57,0.90
2011,12,11,04,58,0.90
2011,12,11,04,59,0.90
2011,12,11,05,00,0.90
2011,12,11,05,01,0.90
2011,12,11,05,02,0.90
2011,12,11,05,03,0.80
2011,12,11,05,04,0.80
2011,12,11,05,05,0.70
2011,12,11,05,06,0.60
2011,12,11,05,07,0.60
2011,12,11,05,08,0.60
2011,12,11,05,09,0.50
2011,12,11,05,10,0.50
2011,12,11,05,11,0.50
2011,12,11,05,12,0.40
2011,12,11,05,13,0.40
2011,12,11,05,14,0.40
2011,12,11,05,15,0.40
2011,12,11,05,16,0.40
2011,12,11,05,17,0.40
2011,12,11,05,18,0.50
2011,12,11,05,19,0.50
2011,12,11,05,20,0.60
2011,12,11,05,21,0.60
2011,12,11,05,22,0.70
2011,12,11,05,23,0.70
2011,12,11,05,24,0.70
2011,12,11,05,25,0.70
2011,12,11,05,26,0.80
2011,12,11,05,27,0.80
2011,12,11,05,28,0.80
2011,12,11,05,29,0.80
2011,12,11,05,30,0.80
2011,12,11,05,31,0.80
2011,12,11,05,32,0.80
2011,12,11,05,33,0.80
2011,12,11,05,34,0.80
2011,12,11,05,35,0.80
2011,12,11,05,36,0.80
2011,12,11,05,37,0.80
2011,12,11,05,38,0.80
2011,12,11,05,39,0.80
2011,12,11,05,40,0.80
2011,12,11,05,41,0.80
2011,12,11,05,42,0.80
2011,12,11,05,43,0.80
2011,12,11,05,44,0.80
2011,12,11,05,45,0.80
2011,12,11,05,46,0.80
2011,12,11,05,47,0.80
2011,12,11,05,48,0.80
2011,12,11,05,49,0.80
2011,12,11,05,50,0.80
2011,12,11,05,51,0.80
2011,12,11,05,52,0.80
2011,12,11,05,53,0.80
2011,12,11,05,54,0.80
2011,12,11,05,55,0.80
2011,12,11,05,56,0.90
2011,12,11,05,57,0.90
2011,12,11,05,58,0.90
2011,12,11,05,59,0.90
2011,12,11,06,00,1.00
2011,12,11,06,01,1.00
2011,12,11,06,02,1.00
2011,12,11,06,03,1.10
2011,12,11,06,04,1.10
2011,12,11,06,05,1.10
2011,12,11,06,06,1.00
2011,12,11,06,07,1.00
2011,12,11,06,08,0.90
2011,12,11,06,09,0.90
2011,12,11,06,10,0.80
2011,12,11,06,11,0.80
2011,12,11,06,12,0.80
2011,12,11,06,13,0.80
2011,12,11,06,14,0.80
2011,12,11,06,15,0.80
2011,12,11,06,16,0.70
2011,12,11,06,17,0.70
2011,12,11,06,18,0.70
2011,12,11,06,19,0.70
2011,12,11,06,20,0.70
2011,12,11,06,21,0.70
2011,12,11,06,22,0.70
2011,12,11,06,23,0.80
2011,12,11,06,24,0.80
2011,12,11,06,25,0.80
2011,12,11,06,26,0.80
2011,12,11,06,27,0.80
2011,12,11,06,28,0.80
2011,12,11,06,29,0.80
2011,12,11,06,30,0.80
2011,12,11,06,31,0.80
2011,12,11,06,32,0.80
2011,12,11,06,33,0.80
2011,12,11,06,34,0.80
2011,12,11,06,35,0.80
2011,12,11,06,36,0.90
2011,12,11,06,37,0.90
2011,12,11,06,38,0.90
2011,12,11,06,39,0.90
2011,12,11,06,40,0.90
2011,12,11,06,41,0.90
2011,12,11,06,42,0.90
2011,12,11,06,43,0.90
2011,12,11,06,44,0.90
2011,12,11,06,45,0.90
2011,12,11,06,46,0.90
2011,12,11,06,47,0.90
2011,12,11,06,48,0.80
2011,12,11,06,49,0.80
2011,12,11,06,50,0.80
2011,12,11,06,51,0.80
2011,12,11,06,52,0.80
2011,12,11,06,53,0.80
2011,12,11,06,54,0.70
2011,12,11,06,55,0.60
2011,12,11,06,56,0.60
2011,12,11,06,57,0.60
2011,12,11,06,58,0.50
2011,12,11,06,59,0.50
2011,12,11,07,00,0.40
2011,12,11,07,01,0.40
2011,12,11,07,02,0.40
2011,12,11,07,03,0.40
2011,12,11,07,04,0.50
2011,12,11,07,05,0.50
2011,12,11,07,06,0.60
2011,12,11,07,07,0.60
2011,12,11,07,08,0.60
2011,12,11,07,09,0.70
2011,12,11,07,10,0.70
2011,12,11,07,11,0.70
2011,12,11,07,12,0.70
2011,12,11,07,13,0.70
2011,12,11,07,14,0.70
2011,12,11,07,15,0.60
2011,12,11,07,16,0.60
2011,12,11,07,17,0.60
2011,12,11,07,18,0.50
2011,12,11,07,19,0.50
2011,12,11,07,20,0.40
2011,12,11,07,21,0.40
2011,12,11,07,22,0.50
2011,12,11,07,23,0.50
2011,12,11,07,24,0.60
2011,12,11,07,25,0.70
2011,12,11,07,26,0.70
2011,12,11,07,27,0.80
2011,12,11,07,28,0.80
2011,12,11,07,29,0.80
2011,12,11,07,30,0.80
2011,12,11,07,31,0.80
2011,12,11,07,32,0.80
2011,12,11,07,33,0.70
2011,12,11,07,34,0.70
2011,12,11,07,35,0.70
2011,12,11,07,36,0.60
2011,12,11,07,37,0.60
2011,12,11,07,38,0.60
2011,12,11,07,39,0.60
2011,12,11,07,40,0.60
2011,12,11,07,41,0.60
2011,12,11,07,42,0.60
2011,12,11,07,43,0.60
2011,12,11,07,44,0.60
2011,12,11,07,45,0.50
2011,12,11,07,46,0.50
2011,12,11,07,47,0.50
2011,12,11,07,48,0.50
2011,12,11,07,49,0.40
2011,12,11,07,50,0.40
2011,12,11,07,51,0.50
2011,12,11,07,52,0.50
2011,12,11,07,53,0.60
2011,12,11,07,54,0.60
2011,12,11,07,55,0.70
2011,12,11,07,56,0.70
2011,12,11,07,57,0.80
2011,12,11,07,58,0.80
2011,12,11,07,59,0.80
2011,12,11,08,00,0.80
2011,12,11,08,01,0.80
2011,12,11,08,02,0.80
2011,12,11,08,03,0.80
2011,12,11,08,04,0.80
2011,12,11,08,05,0.80
2011,12,11,08,06,0.90
2011,12,11,08,07,0.90
2011,12,11,08,08,0.90
2011,12,11,08,09,0.90
2011,12,11,08,10,0.90
2011,12,11,08,11,0.90
2011,12,11,08,12,0.90
2011,12,11,08,13,0.90
2011,12,11,08,14,0.90
2011,12,11,08,15,0.90
2011,12,11,08,16,0.90
2011,12,11,08,17,0.90
2011,12,11,08,18,0.90
2011,12,11,08,19,0.90
2011,12,11,08,20,0.90
2011,12,11,08,21,0.90
2011,12,11,08,22,0.90
2011,12,11,08,23,0.90
2011,12,11,08,24,0.90
2011,12,11,08,25,0.80
2011,12,11,08,26,0.80
2011,12,11,08,27,0.80
2011,12,11,08,28,0.80
2011,12,11,08,29,0.70
2011,12,11,08,30,0.70
2011,12,11,08,31,0.70
2011,12,11,08,32,0.70
2011,12,11,08,33,0.70
2011,12,11,08,34,0.70
2011,12,11,08,35,0.70
2011,12,11,08,36,0.70
2011,12,11,08,37,0.70
2011,12,11,08,38,0.70
2011,12,11,08,39,0.70
2011,12,11,08,40,0.70
2011,12,11,08,41,0.70
2011,12,11,08,42,0.70
2011,12,11,08,43,0.70
2011,12,11,08,44,0.70
2011,12,11,08,45,0.70
2011,12,11,08,46,0.70
2011,12,11,08,47,0.70
2011,12,11,08,48,0.70
2011,12,11,08,49,0.70
2011,12,11,08,50,0.70
2011,12,11,08,51,0.70
2011,12,11,08,52,0.80
2011,12,11,08,53,0.80
2011,12,11,08,54,0.80
2011,12,11,08,55,0.80
2011,12,11,08,56,0.80
2011,12,11,08,57,0.80
2011,12,11,08,58,0.80
2011,12,11,08,59,0.80
2011,12,11,09,00,0.80
2011,12,11,09,01,0.80
2011,12,11,09,02,0.80
2011,12,11,09,03,0.80
2011,12,11,09,04,0.80
2011,12,11,09,05,0.80
2011,12,11,09,06,0.80
2011,12,11,09,07,0.80
2011,12,11,09,08,0.90
2011,12,11,09,09,0.90
2011,12,11,09,10,0.90
2011,12,11,09,11,0.90
2011,12,11,09,12,0.90
2011,12,11,09,13,0.90
2011,12,11,09,14,0.90
2011,12,11,09,15,0.90
2011,12,11,09,16,0.90
2011,12,11,09,17,0.90
2011,12,11,09,18,1.00
2011,12,11,09,19,1.00
2011,12,11,09,20,1.00
2011,12,11,09,21,1.00
2011,12,11,09,22,1.00
2011,12,11,09,23,1.00
2011,12,11,09,24,1.10
2011,12,11,09,25,1.10
2011,12,11,09,26,1.10
2011,12,11,09,27,1.10
2011,12,11,09,28,1.10
2011,12,11,09,29,1.20
2011,12,11,09,30,1.20
2011,12,11,09,31,1.20
2011,12,11,09,32,1.30
2011,12,11,09,33,1.30
2011,12,11,09,34,1.40
2011,12,11,09,35,1.40
2011,12,11,09,36,1.50
2011,12,11,09,37,1.50
2011,12,11,09,38,1.60
2011,12,11,09,39,1.60
2011,12,11,09,40,1.70
2011,12,11,09,41,1.70
2011,12,11,09,42,1.70
2011,12,11,09,43,1.70
2011,12,11,09,44,1.80
2011,12,11,09,45,1.80
2011,12,11,09,46,1.80
2011,12,11,09,47,1.80
2011,12,11,09,48,1.90
2011,12,11,09,49,1.90
2011,12,11,09,50,2.00
2011,12,11,09,51,2.00
2011,12,11,09,52,2.00
2011,12,11,09,53,2.00
2011,12,11,09,54,2.00
2011,12,11,09,55,2.00
2011,12,11,09,56,2.10
2011,12,11,09,57,2.10
2011,12,11,09,58,2.10
2011,12,11,09,59,2.10
2011,12,11,10,00,2.10
2011,12,11,10,01,2.10
2011,12,11,10,02,2.10
2011,12,11,10,03,2.20
2011,12,11,10,04,2.20
2011,12,11,10,05,2.20
2011,12,11,10,06,2.20
2011,12,11,10,07,2.20
2011,12,11,10,08,2.20
2011,12,11,10,09,2.20
2011,12,11,10,10,2.20
2011,12,11,10,11,2.20
2011,12,11,10,12,2.30
2011,12,11,10,13,2.30
2011,12,11,10,14,2.30
2011,12,11,10,15,2.20
2011,12,11,10,16,2.20
2011,12,11,10,17,2.20
2011,12,11,10,18,2.20
2011,12,11,10,19,2.20
2011,12,11,10,20,2.30
2011,12,11,10,21,2.30
2011,12,11,10,22,2.30
2011,12,11,10,23,2.30
2011,12,11,10,24,2.30
2011,12,11,10,25,2.30
2011,12,11,10,26,2.30
2011,12,11,10,27,2.30
2011,12,11,10,28,2.30
2011,12,11,10,29,2.30
2011,12,11,10,30,2.30
2011,12,11,10,31,2.30
2011,12,11,10,32,2.30
2011,12,11,10,33,2.30
2011,12,11,10,34,2.30
2011,12,11,10,35,2.40
2011,12,11,10,36,2.40
2011,12,11,10,37,2.40
2011,12,11,10,38,2.40
2011,12,11,10,39,2.40
2011,12,11,10,40,2.50
2011,12,11,10,41,2.50
2011,12,11,10,42,2.50
2011,12,11,10,43,2.60
2011,12,11,10,44,2.60
2011,12,11,10,45,2.70
2011,12,11,10,46,2.80
2011,12,11,10,47,2.80
2011,12,11,10,48,2.90
2011,12,11,10,49,2.90
2011,12,11,10,50,3.00
2011,12,11,10,51,3.00
2011,12,11,10,52,3.10
2011,12,11,10,53,3.10
2011,12,11,10,54,3.10
2011,12,11,10,55,3.10
2011,12,11,10,56,3.10
2011,12,11,10,57,3.10
2011,12,11,10,58,3.10
2011,12,11,10,59,3.10
2011,12,11,11,00,3.20
2011,12,11,11,01,3.20
2011,12,11,11,02,3.20
2011,12,11,11,03,3.20
2011,12,11,11,04,3.20
2011,12,11,11,05,3.20
2011,12,11,11,06,3.20
2011,12,11,11,07,3.20
2011,12,11,11,08,3.20
2011,12,11,11,09,3.20
2011,12,11,11,10,3.30
2011,12,11,11,11,3.30
2011,12,11,11,12,3.30
2011,12,11,11,13,3.30
2011,12,11,11,14,3.30
2011,12,11,11,15,3.30
2011,12,11,11,16,3.30
2011,12,11,11,17,3.30
2011,12,11,11,18,3.30
2011,12,11,11,19,3.30
2011,12,11,11,20,3.40
2011,12,11,11,21,3.40
2011,12,11,11,22,3.40
2011,12,11,11,23,3.40
2011,12,11,11,24,3.50
2011,12,11,11,25,3.50
2011,12,11,11,26,3.60
2011,12,11,11,27,3.60
2011,12,11,11,28,3.70
2011,12,11,11,29,3.70
2011,12,11,11,30,3.70
2011,12,11,11,31,3.70
2011,12,11,11,32,3.70
2011,12,11,11,33,3.70
2011,12,11,11,34,3.70
2011,12,11,11,35,3.70
2011,12,11,11,36,3.70
2011,12,11,11,37,3.80
2011,12,11,11,38,3.80
2011,12,11,11,39,3.80
2011,12,11,11,40,3.80
2011,12,11,11,41,3.90
2011,12,11,11,42,3.90
2011,12,11,11,43,4.00
2011,12,11,11,44,4.00
2011,12,11,11,45,4.00
2011,12,11,11,46,4.10
2011,12,11,11,47,4.10
2011,12,11,11,48,4.10
2011,12,11,11,49,4.10
2011,12,11,11,50,4.10
2011,12,11,11,51,4.20
2011,12,11,11,52,4.20
2011,12,11,11,53,4.30
2011,12,11,11,54,4.30
2011,12,11,11,55,4.30
2011,12,11,11,56,4.30
2011,12,11,11,57,4.40
2011,12,11,11,58,4.50
2011,12,11,11,59,4.50
2011,12,11,12,00,4.60
2011,12,11,12,01,4.60
2011,12,11,12,02,4.60
2011,12,11,12,03,4.70
2011,12,11,12,04,4.70
2011,12,11,12,05,4.70
2011,12,11,12,06,4.70
2011,12,11,12,07,4.70
2011,12,11,12,08,4.80
2011,12,11,12,09,4.80
2011,12,11,12,10,4.80
2011,12,11,12,11,4.70
2011,12,11,12,12,4.70
2011,12,11,12,13,4.70
2011,12,11,12,14,4.70
2011,12,11,12,15,4.70
2011,12,11,12,16,4.70
2011,12,11,12,17,4.70
2011,12,11,12,18,4.70
2011,12,11,12,19,4.70
2011,12,11,12,20,4.70
2011,12,11,12,21,4.70
2011,12,11,12,22,4.70
2011,12,11,12,23,4.80
2011,12,11,12,24,4.80
2011,12,11,12,25,4.80
2011,12,11,12,26,4.90
2011,12,11,12,27,4.90
2011,12,11,12,28,5.00
2011,12,11,12,29,5.00
2011,12,11,12,30,5.10
2011,12,11,12,31,5.20
2011,12,11,12,32,5.20
2011,12,11,12,33,5.20
2011,12,11,12,34,5.30
2011,12,11,12,35,5.40
2011,12,11,12,36,5.40
2011,12,11,12,37,5.40
2011,12,11,12,38,5.40
2011,12,11,12,39,5.40
2011,12,11,12,40,5.40
2011,12,11,12,41,5.40
2011,12,11,12,42,5.40
2011,12,11,12,43,5.50
2011,12,11,12,44,5.40
2011,12,11,12,45,5.50
2011,12,11,12,46,5.50
2011,12,11,12,47,5.50
2011,12,11,12,48,5.60
2011,12,11,12,49,5.60
2011,12,11,12,50,5.60
2011,12,11,12,51,5.60
2011,12,11,12,52,5.60
2011,12,11,12,53,5.60
2011,12,11,12,54,5.60
2011,12,11,12,55,5.70
2011,12,11,12,56,5.60
2011,12,11,12,57,5.60
2011,12,11,12,58,5.60
2011,12,11,12,59,5.60
2011,12,11,13,00,5.60
2011,12,11,13,01,5.60
2011,12,11,13,02,5.70
2011,12,11,13,03,5.70
2011,12,11,13,04,5.70
2011,12,11,13,05,5.80
2011,12,11,13,06,5.80
2011,12,11,13,07,5.80
2011,12,11,13,08,5.90
2011,12,11,13,09,5.90
2011,12,11,13,10,5.90
2011,12,11,13,11,5.90
2011,12,11,13,12,6.00
2011,12,11,13,13,6.00
2011,12,11,13,14,6.10
2011,12,11,13,15,6.10
2011,12,11,13,16,6.00
2011,12,11,13,17,6.00
2011,12,11,13,18,6.00
2011,12,11,13,19,6.00
2011,12,11,13,20,6.00
2011,12,11,13,21,6.10
2011,12,11,13,22,6.10
2011,12,11,13,23,6.10
2011,12,11,13,24,6.10
2011,12,11,13,25,6.10
2011,12,11,13,26,6.20
2011,12,11,13,27,6.20
2011,12,11,13,28,6.20
2011,12,11,13,29,6.20
2011,12,11,13,30,6.20
2011,12,11,13,31,6.30
2011,12,11,13,32,6.30
2011,12,11,13,33,6.30
2011,12,11,13,34,6.30
2011,12,11,13,35,6.30
2011,12,11,13,36,6.30
2011,12,11,13,37,6.30
2011,12,11,13,38,6.40
2011,12,11,13,39,6.40
2011,12,11,13,40,6.40
2011,12,11,13,41,6.40
2011,12,11,13,42,6.40
2011,12,11,13,43,6.40
2011,12,11,13,44,6.40
2011,12,11,13,45,6.40
2011,12,11,13,46,6.40
2011,12,11,13,47,6.40
2011,12,11,13,48,6.40
2011,12,11,13,49,6.40
2011,12,11,13,50,6.40
2011,12,11,13,51,6.40
2011,12,11,13,52,6.40
2011,12,11,13,53,6.40
2011,12,11,13,54,6.40
2011,12,11,13,55,6.40
2011,12,11,13,56,6.40
2011,12,11,13,57,6.50
2011,12,11,13,58,6.50
2011,12,11,13,59,6.40
2011,12,11,14,00,6.40
2011,12,11,14,01,6.40
2011,12,11,14,02,6.40
2011,12,11,14,03,6.40
2011,12,11,14,04,6.40
2011,12,11,14,05,6.40
2011,12,11,14,06,6.50
2011,12,11,14,07,6.50
2011,12,11,14,08,6.60
2011,12,11,14,09,6.60
2011,12,11,14,10,6.60
2011,12,11,14,11,6.60
2011,12,11,14,12,6.60
2011,12,11,14,13,6.60
2011,12,11,14,14,6.60
2011,12,11,14,15,6.60
2011,12,11,14,16,6.50
2011,12,11,14,17,6.50
2011,12,11,14,18,6.40
2011,12,11,14,19,6.40
2011,12,11,14,20,6.40
2011,12,11,14,21,6.40
2011,12,11,14,22,6.30
2011,12,11,14,23,6.30
2011,12,11,14,24,6.30
2011,12,11,14,25,6.30
2011,12,11,14,26,6.30
2011,12,11,14,27,6.30
2011,12,11,14,28,6.20
2011,12,11,14,29,6.20
2011,12,11,14,30,6.20
2011,12,11,14,31,6.20
2011,12,11,14,32,6.30
2011,12,11,14,33,6.30
2011,12,11,14,34,6.30
2011,12,11,14,35,6.30
2011,12,11,14,36,6.30
2011,12,11,14,37,6.30
2011,12,11,14,38,6.30
2011,12,11,14,39,6.30
2011,12,11,14,40,6.30
2011,12,11,14,41,6.30
2011,12,11,14,42,6.40
2011,12,11,14,43,6.40
2011,12,11,14,44,6.40
2011,12,11,14,45,6.40
2011,12,11,14,46,6.40
2011,12,11,14,47,6.40
2011,12,11,14,48,6.40
2011,12,11,14,49,6.40
2011,12,11,14,50,6.40
2011,12,11,14,51,6.40
2011,12,11,14,52,6.40
2011,12,11,14,53,6.40
2011,12,11,14,54,6.40
2011,12,11,14,55,6.40
2011,12,11,14,56,6.50
2011,12,11,14,57,6.50
2011,12,11,14,58,6.50
2011,12,11,14,59,6.50
2011,12,11,15,00,6.60
2011,12,11,15,01,6.60
2011,12,11,15,02,6.60
2011,12,11,15,03,6.60
2011,12,11,15,04,6.50
2011,12,11,15,05,6.50
2011,12,11,15,06,6.50
2011,12,11,15,07,6.40
2011,12,11,15,08,6.40
2011,12,11,15,09,6.40
2011,12,11,15,10,6.40
2011,12,11,15,11,6.30
2011,12,11,15,12,6.30
2011,12,11,15,13,6.30
2011,12,11,15,14,6.30
2011,12,11,15,15,6.30
2011,12,11,15,16,6.30
2011,12,11,15,17,6.30
2011,12,11,15,18,6.30
2011,12,11,15,19,6.30
2011,12,11,15,20,6.30
2011,12,11,15,21,6.30
2011,12,11,15,22,6.30
2011,12,11,15,23,6.30
2011,12,11,15,24,6.30
2011,12,11,15,25,6.30
2011,12,11,15,26,6.30
2011,12,11,15,27,6.30
2011,12,11,15,28,6.30
2011,12,11,15,29,6.30
2011,12,11,15,30,6.30
2011,12,11,15,31,6.30
2011,12,11,15,32,6.30
2011,12,11,15,33,6.30
2011,12,11,15,34,6.20
2011,12,11,15,35,6.20
2011,12,11,15,36,6.20
2011,12,11,15,37,6.20
2011,12,11,15,38,6.20
2011,12,11,15,39,6.20
2011,12,11,15,40,6.10
2011,12,11,15,41,6.10
2011,12,11,15,42,6.00
2011,12,11,15,43,5.90
2011,12,11,15,44,5.90
2011,12,11,15,45,5.80
2011,12,11,15,46,5.80
2011,12,11,15,47,5.80
2011,12,11,15,48,5.70
2011,12,11,15,49,5.70
2011,12,11,15,50,5.70
2011,12,11,15,51,5.70
2011,12,11,15,52,5.60
2011,12,11,15,53,5.60
2011,12,11,15,54,5.60
2011,12,11,15,55,5.60
2011,12,11,15,56,5.50
2011,12,11,15,57,5.50
2011,12,11,15,58,5.40
2011,12,11,15,59,5.40
2011,12,11,16,00,5.30
2011,12,11,16,01,5.30
2011,12,11,16,02,5.20
2011,12,11,16,03,5.20
2011,12,11,16,04,5.10
2011,12,11,16,05,5.00
2011,12,11,16,06,4.90
2011,12,11,16,07,4.80
2011,12,11,16,08,4.70
2011,12,11,16,09,4.60
2011,12,11,16,10,4.50
2011,12,11,16,11,4.40
2011,12,11,16,12,4.30
2011,12,11,16,13,4.20
2011,12,11,16,14,4.20
2011,12,11,16,15,4.10
2011,12,11,16,16,4.00
2011,12,11,16,17,4.00
2011,12,11,16,18,3.90
2011,12,11,16,19,3.80
2011,12,11,16,20,3.70
2011,12,11,16,21,3.70
2011,12,11,16,22,3.60
2011,12,11,16,23,3.50
2011,12,11,16,24,3.40
2011,12,11,16,25,3.40
2011,12,11,16,26,3.30
2011,12,11,16,27,3.20
2011,12,11,16,28,3.20
2011,12,11,16,29,3.10
2011,12,11,16,30,3.00
2011,12,11,16,31,3.00
2011,12,11,16,32,3.00
2011,12,11,16,33,2.90
2011,12,11,16,34,2.90
2011,12,11,16,35,2.90
2011,12,11,16,36,2.90
2011,12,11,16,37,2.90
2011,12,11,16,38,2.90
2011,12,11,16,39,2.90
2011,12,11,16,40,2.90
2011,12,11,16,41,2.90
2011,12,11,16,42,2.90
2011,12,11,16,43,2.90
2011,12,11,16,44,2.90
2011,12,11,16,45,2.90
2011,12,11,16,46,2.90
2011,12,11,16,47,2.90
2011,12,11,16,48,2.90
2011,12,11,16,49,2.90
2011,12,11,16,50,2.90
2011,12,11,16,51,2.90
2011,12,11,16,52,2.90
2011,12,11,16,53,2.90
2011,12,11,16,54,2.90
2011,12,11,16,55,2.90
2011,12,11,16,56,2.90
2011,12,11,16,57,2.90
2011,12,11,16,58,2.90
2011,12,11,16,59,2.90
2011,12,11,17,00,2.90
2011,12,11,17,01,3.00
2011,12,11,17,02,3.00
2011,12,11,17,03,3.00
2011,12,11,17,04,3.10
2011,12,11,17,05,3.10
2011,12,11,17,06,3.10
2011,12,11,17,07,3.20
2011,12,11,17,08,3.20
2011,12,11,17,09,3.20
2011,12,11,17,10,3.20
2011,12,11,17,11,3.30
2011,12,11,17,12,3.30
2011,12,11,17,13,3.30
2011,12,11,17,14,3.40
2011,12,11,17,15,3.40
2011,12,11,17,16,3.40
2011,12,11,17,17,3.50
2011,12,11,17,18,3.50
2011,12,11,17,19,3.50
2011,12,11,17,20,3.50
2011,12,11,17,21,3.50
2011,12,11,17,22,3.50
2011,12,11,17,23,3.50
2011,12,11,17,24,3.50
2011,12,11,17,25,3.50
2011,12,11,17,26,3.50
2011,12,11,17,27,3.40
2011,12,11,17,28,3.40
2011,12,11,17,29,3.40
2011,12,11,17,30,3.40
2011,12,11,17,31,3.40
2011,12,11,17,32,3.40
2011,12,11,17,33,3.40
2011,12,11,17,34,3.40
2011,12,11,17,35,3.40
2011,12,11,17,36,3.30
2011,12,11,17,37,3.30
2011,12,11,17,38,3.30
2011,12,11,17,39,3.30
2011,12,11,17,40,3.20
2011,12,11,17,41,3.20
2011,12,11,17,42,3.20
2011,12,11,17,43,3.20
2011,12,11,17,44,3.20
2011,12,11,17,45,3.20
2011,12,11,17,46,3.10
2011,12,11,17,47,3.10
2011,12,11,17,48,3.00
2011,12,11,17,49,3.00
2011,12,11,17,50,2.90
2011,12,11,17,51,2.90
2011,12,11,17,52,2.90
2011,12,11,17,53,2.80
2011,12,11,17,54,2.80
2011,12,11,17,55,2.80
2011,12,11,17,56,2.70
2011,12,11,17,57,2.70
2011,12,11,17,58,2.70
2011,12,11,17,59,2.70
2011,12,11,18,00,2.70
2011,12,11,18,01,2.70
2011,12,11,18,02,2.70
2011,12,11,18,03,2.70
2011,12,11,18,04,2.70
2011,12,11,18,05,2.70
2011,12,11,18,06,2.70
2011,12,11,18,07,2.70
2011,12,11,18,08,2.70
2011,12,11,18,09,2.70